Погода в Касимове

Россия / Санкт-Петербург и Ленинградская область     60°12′12″N   30°18′40″E
темп.,
°C
ветер,
м/с
пор.,
м/с
влажн.,
%
обл.,
%
осадки,
мм/ч
давл.,
гПа
погр.,
м
31 июля, сб
сб3100:00+15ю4117119 0.0 997472
03:00+12юв31088100 0.5 994321
06:00+14ююз499298 0.8 993642
09:00+14юз51195100 4.6 993977
12:00+18з598517 2.3 9951005
15:00+19зюз697574 3.8 9971137
18:00+20зюз58594 0.4 9991350
21:00+16юз268049 0.4 1000140
1 августа, вс
вс100:00+16юз28786 0.0 1001270
03:00+13юз26964 0.0 1002121
06:00+14ююз3899100 0.0 1002290
09:00+17ююз2584100 0.8 1001441
12:00+19юз587934 1.8 1001995
15:00+23юз5114879 1.9 10002136
18:00+18зюз713819 1.1 10001220
21:00+16зюз6139139 1.8 1002995
2 августа, пн
пн200:00+15зюз5129289 0.1 1003811
03:00+14юз310945 0.2 1004458
06:00+13юз3109550 0.0 1004377
09:00+17юз4770100 0.0 1004735
12:00+21юз3550100 0.0 10031448
15:00+22ю2354100 0.0 10021246
18:00+17ююв3691100 2.3 1001197
21:00+15ююв1199100 4.8 100045
3 августа, вт
вт300:00+15ююз1197100 0.5 99914
03:00+14зюз1198100 2.3 99935
06:00+14з259584 1.7 1000157
09:00+16зюз478439 1.8 1000675
12:00+19зюз566236 0.4 10011314
15:00+20зюз575612 0.4 10021494
18:00+18з586636 0.3 10031277
21:00+14зсз388129 0.4 1006451
4 августа, ср
ср400:00+14зсз3880100 0.0 1007501
03:00+13зсз388218 0.1 1009402
06:00+11сз310805 0.0 1011470
09:00+16сз36525 0.0 1012875
12:00+20з343754 0.0 10132435
15:00+19юз453969 0.0 10141438
18:00+19зюз453579 0.0 1015883
21:00+14зюз22575 0.0 101611